sat.trackr.live / text

‹ back to catalog

ONEWEB-0276

NORAD 48994 · 2021-060AD

PAYLOAD ACTIVE UNKNOWN

§ Identity

Operator
Country
UK
Launch date
2021-07-01
Launch site
VOSTO
Launch vehicle
Mass (kg)
RCS (m²)

Purposes: comms

External: N2YO · Heavens-Above · Gunter

§ Orbital elements

Epoch: 2026-05-24T15:03:45.605952Z

Period
109.37 min
Inclination
87.9106°
Eccentricity
0.0002118
Mean motion
13.16592833 rev/d
Perigee alt
1,196.2 km
Apogee alt
1,199.4 km
Semi-major
7,575.9 km
B*
-1.7435e-4
RAAN
233.4528°
Arg perigee
96.8228°
Mean anomaly
263.3144°
Rev number
23,647

§ Raw data

ONEWEB-02761 48994U 21060AD  26144.62761118 -.00000054  00000+0 -17435-3 0  99952 48994  87.9106 233.4528 0002118  96.8228 263.3144 13.16592833236477

JSON: /api/v1/satellites/48994 · /tle

For live sub-satellite position, see the globe view (requires WebGL).

§ Visibility from observer

Set your observer location to see the next 7 days of passes ≥ 10°. The values pass through the URL so the page stays shareable.

No JS? Fill the form by hand. The geolocation button needs JavaScript.